Location: Brusselsch Zeekanaal
(50.8667°N, 4.3667°E)
Time: 09:47:42
(UTC+00:00)

ACS3 Solar Sail - Pass Details

Date: 08 November 2025
Orbit: 888 x 1001 km, 97.3° (Epoch: 11 December)

Event Time Altitude Azimuth Distance (km) Brightness Sun altitude
Rises 03:34:37 0° 11° (N) 3,521 5.0 -30.3°
Reaches altitude 10° 03:37:01 10° 10° (N) 2,586 4.2 -30.0°
Enters shadow 03:41:26 54° 354° (N) 1,101 2.0 -29.3°
